This is the latest recevied weather packets stored in our database for station/object K0GDI. If no packets are shown the sender has not sent any weather packets the latest 10 day(s).
| Time | Temp. | Humidity | Pressure | Rain* | Wind** | Luminosity | Snow |
|---|---|---|---|---|---|---|---|
| 1788048096 | 24.44° C | 71% | 1019.7 hPa | 0 mm | 0.45 m/s, 199° | - | - |
| 1788047495 | 25° C | 69% | 1019.7 hPa | 0 mm | 0.45 m/s, 179° | - | - |
| 1788046894 | 25.56° C | 66% | 1019.7 hPa | 0 mm | 0.45 m/s, 181° | - | - |
| 1788046293 | 26.11° C | 63% | 1019.7 hPa | 0 mm | 0.45 m/s, 195° | - | - |
| 1788045692 | 26.67° C | 61% | 1019.7 hPa | 0 mm | 0.45 m/s, 230° | - | - |
| 1788045092 | 27.22° C | 58% | 1019.7 hPa | 0 mm | 0.45 m/s, 210° | - | - |
| 1788044491 | 27.78° C | 56% | 1019.7 hPa | 0 mm | 0.45 m/s, 236° | - | - |
| 1788043890 | 27.78° C | 53% | 1019.7 hPa | 0 mm | 0.45 m/s, 165° | - | - |
| 1788043290 | 28.33° C | 51% | 1019.7 hPa | 0 mm | 0.89 m/s, 151° | - | - |
| 1788042688 | 28.33° C | 49% | 1019.7 hPa | 0 mm | 1.34 m/s, 152° | - | - |
| 1788042088 | 28.33° C | 50% | 1019.7 hPa | 0 mm | 1.34 m/s, 153° | - | - |
| 1788041487 | 28.89° C | 52% | 1019.7 hPa | 0 mm | 0.89 m/s, 153° | - | - |
| 1788040886 | 28.89° C | 51% | 1019.7 hPa | 0 mm | 0.89 m/s, 151° | - | - |
| 1788040285 | 28.89° C | 55% | 1019.7 hPa | 0 mm | 0.45 m/s, 158° | - | - |
| 1788039082 | 28.89° C | 54% | 1019.7 hPa | 0 mm | 0.45 m/s, 179° | - | - |
| 1788038481 | 28.89° C | 54% | 1019.7 hPa | 0 mm | 0.45 m/s, 185° | - | - |
| 1788037880 | 29.44° C | 53% | 1019.7 hPa | 0 mm | 0.45 m/s, 194° | - | - |
| 1788037279 | 29.44° C | 51% | 1019.7 hPa | 0 mm | 0.45 m/s, 164° | - | - |
| 1788036678 | 30° C | 49% | 1019.7 hPa | 0 mm | 0.89 m/s, 154° | - | - |
| 1788036077 | 30.56° C | 47% | 1019.7 hPa | 0 mm | 1.34 m/s, 146° | - | - |
| 1788035476 | 30.56° C | 45% | 1019.7 hPa | 0 mm | 1.34 m/s, 149° | - | - |
| 1788034875 | 30.56° C | 45% | 1019.7 hPa | 0 mm | 0.89 m/s, 175° | - | - |
| 1788034274 | 30.56° C | 45% | 1019.7 hPa | 0 mm | 0.89 m/s, 157° | - | - |
| 1788033673 | 30.56° C | 46% | 1019.7 hPa | 0 mm | 1.34 m/s, 146° | - | - |
| 1788033072 | 30.56° C | 44% | 1019.7 hPa | 0 mm | 1.79 m/s, 149° | - | - |
* Rain latest hour (hover to see other rain measurements)
** Current wind speed in m/s (hover to see current wind gust speed)